Wind_Speed
45 44 43 41 39 38 37 37 37 37 38 37 36 35 35 35 37 37 37 37 38 40 41 42 43 43 43 43 44 44 45 45 46 46 46 46 47 48 49 50 51 52 52 53 54 54 55 56 56 57 58 58 59 59 60 61 60 61 62 63 65 68 68 69 68 69 70 71 71 73 74 76 78 77 77 79 80 81 83 85 86 87 88 88 88 88 88 89
48 47 46 45 43 41 39 39 39 39 40 39 39 39 38 37 38 39 39 39 39 39 40 40 41 42 42 43 44 45 46 46 47 48 48 49 50 50 51 52 53 53 54 55 56 56 57 58 58 59 60 61 62 62 64 64 64 64 64 66 68 70 70 70 70 71 73 73 74 75 76 78 80 81 81 82 82 83 85 87 88 90 90 90 90 91 91 92
50 49 49 49 48 46 44 43 41 41 41 41 41 41 41 40 41 41 42 43 44 43 43 43 43 43 43 44 44 46 46 46 47 48 49 50 51 52 53 54 55 55 56 57 57 58 59 60 60 61 62 63 64 65 66 67 68 68 68 70 73 73 72 72 73 74 77 78 77 77 78 80 83 84 84 84 84 85 87 89 91 92 92 93 94 94 95 96
50 50 50 50 50 50 49 48 47 45 44 44 44 44 44 43 43 43 44 45 46 47 47 47 47 47 47 48 48 49 50 50 50 50 51 52 52 53 54 55 56 57 58 58 59 59 60 61 61 62 63 64 65 67 67 68 69 70 71 74 75 75 74 75 75 77 81 82 80 79 80 83 85 87 87 86 86 87 89 92 94 94 95 95 96 97 98 98
49 50 49 49 50 50 50 50 50 49 49 48 47 47 46 46 46 46 46 47 48 48 49 49 50 50 50 50 51 51 52 52 53 53 54 54 55 55 56 57 58 58 59 60 61 61 62 63 64 64 65 66 66 68 69 70 70 71 74 76 76 76 75 76 77 80 82 84 83 82 83 85 87 89 89 89 88 89 90 92 94 96 97 98 99 99 99 100
48 49 50 50 49 49 49 50 50 51 51 50 50 49 49 48 48 48 49 49 49 50 51 51 52 52 52 51 52 52 52 52 53 53 54 54 54 55 56 57 58 59 60 61 62 63 64 65 66 66 68 68 68 70 71 72 72 73 75 78 78 78 77 78 80 82 84 85 85 85 86 87 88 90 91 91 90 91 92 94 95 97 99 100 102 102 102 103
44 47 49 50 50 50 50 50 50 50 50 50 50 50 50 50 50 50 50 51 52 52 53 53 54 54 54 54 54 54 54 54 55 54 55 55 55 56 56 56 57 58 59 61 62 63 64 65 66 67 68 69 70 71 72 73 73 74 77 79 80 80 80 80 82 83 85 86 87 88 89 89 90 91 93 93 93 94 95 97 98 99 101 103 104 105 106 106
41 43 45 48 50 51 51 51 51 50 50 49 49 49 49 50 50 50 51 51 52 53 54 55 56 56 56 56 57 57 57 57 57 57 58 58 59 60 60 60 60 61 61 62 63 64 65 65 66 67 69 70 70 71 73 74 75 75 78 80 82 83 82 84 85 86 88 89 89 90 91 92 92 93 93 94 95 97 98 100 101 102 103 105 107 108 109 110
37 39 41 43 46 48 50 52 53 53 53 51 50 49 48 48 48 49 49 50 50 51 53 54 55 56 57 57 58 58 59 59 59 60 61 61 62 63 64 65 65 66 67 68 69 69 69 70 70 71 72 73 74 75 76 77 79 79 80 83 86 87 87 88 89 90 91 92 92 94 95 96 96 95 95 96 99 101 103 104 104 105 106 107 109 110 112 113
32 34 36 38 40 42 45 48 50 52 54 54 55 54 53 52 51 50 50 49 50 50 51 52 53 54 55 56 56 58 59 59 60 61 62 64 65 66 67 68 69 70 71 72 73 74 75 76 76 77 78 79 80 81 82 83 85 84 85 87 90 91 91 91 92 93 94 95 95 97 99 98 98 98 98 99 101 104 106 107 108 109 109 110 111 112 113 114
29 30 32 34 36 38 40 42 44 47 49 51 53 54 55 56 56 56 56 55 54 54 55 55 55 55 55 56 56 57 58 59 60 61 62 63 65 66 68 69 70 71 72 74 75 76 77 78 79 80 81 82 83 84 85 86 87 88 89 90 91 93 93 93 94 94 96 97 97 99 101 100 99 100 100 101 102 105 107 109 110 110 111 112 112 113 114 115
26 28 29 31 33 35 36 38 40 42 44 45 47 49 51 52 54 56 57 57 58 59 60 61 61 62 62 62 62 62 63 63 64 64 65 66 66 67 68 69 71 72 73 74 76 76 77 78 80 81 82 82 83 84 86 88 88 89 90 91 92 94 95 95 96 96 97 98 99 101 102 101 101 101 102 102 103 105 107 108 110 111 112 113 113 114 115 116
25 26 28 29 31 32 34 35 37 39 40 42 44 45 47 48 50 51 52 54 55 57 58 60 62 64 65 65 66 67 67 68 68 69 70 70 71 72 72 73 74 75 76 77 78 79 79 80 81 82 84 84 85 86 87 89 90 91 91 92 93 95 96 97 97 97 98 98 100 102 102 101 101 102 102 102 103 104 105 107 108 110 111 112 113 113 114 115
23 25 26 27 28 30 31 33 34 36 37 39 41 42 43 45 46 47 49 50 51 52 53 55 56 57 59 60 61 62 63 64 65 65 67 68 69 70 71 72 73 74 75 76 77 78 79 80 81 82 84 84 85 86 87 88 90 90 91 92 93 94 95 96 97 97 97 97 99 100 100 99 100 100 101 101 101 102 103 104 106 107 108 109 110 111 112 113
22 23 24 25 26 27 29 30 31 32 34 35 37 38 40 41 42 43 44 45 46 47 48 49 50 51 52 53 55 56 57 58 59 60 61 62 63 65 66 67 68 69 70 72 73 74 75 76 77 79 80 81 81 83 84 86 87 87 88 89 91 91 92 93 94 94 94 95 96 97 98 97 98 98 98 99 99 100 101 102 103 104 105 107 108 109 110 111
20 21 22 23 24 25 27 28 29 30 31 33 34 35 36 37 38 39 40 41 42 43 44 45 47 48 50 51 53 54 54 56 57 58 59 60 61 62 63 64 65 67 68 69 70 71 72 73 75 76 77 78 79 80 82 83 84 85 85 87 89 90 90 91 92 92 93 93 94 94 95 96 96 96 97 97 97 98 99 100 101 102 104 105 106 107 108 109
19 20 21 22 23 24 25 26 27 28 29 31 32 33 34 36 37 37 38 40 41 43 44 46 47 49 50 51 53 54 55 56 57 58 59 60 61 62 63 65 66 67 68 70 70 71 73 74 75 76 77 78 79 80 81 83 84 85 85 86 88 89 90 90 90 91 92 93 93 93 94 95 95 95 95 95 96 97 98 99 101 102 104 105 106 107 108 109
18 19 20 21 22 23 24 25 26 27 28 30 31 32 34 35 37 38 39 41 43 44 46 47 49 50 51 53 54 55 56 57 58 59 59 60 61 63 64 65 67 68 69 70 71 72 74 75 76 77 77 78 79 80 81 83 84 85 85 86 87 88 89 89 90 91 92 93 93 94 94 95 95 95 95 95 96 97 98 100 102 104 105 107 108 109 110 111
18 19 20 21 22 23 24 24 26 27 28 30 31 32 33 35 37 39 40 42 43 45 47 49 50 51 53 54 55 56 57 57 58 59 60 61 62 63 65 66 68 69 70 71 71 72 74 75 76 76 77 78 78 80 81 82 83 84 85 86 87 87 88 89 90 90 91 93 93 94 95 96 96 96 96 97 98 99 101 103 105 106 107 108 109 111 112 113
18 19 20 21 22 23 24 25 26 28 29 30 31 33 34 36 38 39 41 43 44 46 47 49 50 51 53 54 55 56 57 58 59 60 61 62 63 64 65 67 68 69 70 71 71 73 74 75 76 77 77 78 79 80 82 82 83 85 86 88 89 89 90 92 93 93 93 94 95 95 97 97 97 97 98 98 99 100 102 104 106 108 109 110 111 112 113 113
19 20 21 22 23 24 25 26 28 29 30 32 33 34 36 37 39 41 43 44 45 47 48 49 50 52 53 54 55 56 57 58 59 61 63 64 65 66 67 68 69 70 71 72 73 74 75 77 78 79 80 81 82 83 84 84 85 87 88 90 91 91 93 94 95 96 96 96 97 97 98 98 98 98 98 98 99 101 102 104 106 108 109 110 111 112 112 112
20 22 24 25 26 27 28 29 31 32 34 35 36 37 38 39 41 43 44 46 47 49 49 50 52 53 54 55 56 57 59 60 61 62 64 65 67 68 69 70 71 72 74 74 75 76 77 78 80 81 82 83 84 86 86 87 87 88 89 90 91 91 92 93 95 96 96 96 97 98 98 98 98 99 99 99 100 101 103 104 105 107 109 109 110 110 110 111
23 25 27 28 30 31 32 33 34 35 37 38 39 40 41 42 43 45 46 48 49 50 51 52 53 54 55 56 58 59 60 61 62 64 65 66 67 69 70 71 72 73 74 75 76 77 78 79 80 81 82 83 84 85 86 86 86 87 88 88 89 90 90 91 93 94 94 95 96 97 97 97 97 98 99 99 100 101 102 104 105 107 108 108 108 108 109 110
26 28 30 32 33 34 35 36 37 38 39 40 41 42 43 45 46 47 48 49 51 52 52 54 55 56 56 57 58 59 60 61 62 63 64 65 66 67 68 69 70 71 72 73 74 75 76 76 77 78 78 79 80 81 82 83 83 84 85 86 87 88 88 89 91 92 93 94 96 97 96 96 97 97 98 99 100 100 102 103 105 106 107 107 107 107 108 108
30 31 33 35 36 37 38 39 39 40 41 43 44 45 46 47 48 49 50 51 52 53 54 55 55 56 56 57 57 58 58 59 60 61 62 63 63 64 65 66 66 67 68 69 70 71 72 73 73 74 74 75 76 77 78 80 81 81 82 83 84 85 86 87 88 90 91 92 93 95 95 94 94 94 95 96 97 98 100 101 102 103 103 103 104 104 105 106
33 34 36 37 38 39 40 41 42 43 44 45 46 47 48 48 49 50 51 52 53 54 54 54 54 55 55 55 55 55 55 56 57 57 58 59 60 61 61 62 63 63 64 65 66 67 68 69 69 70 70 71 71 72 73 74 76 77 78 78 79 80 81 82 84 85 86 88 89 91 92 91 90 90 91 92 93 95 97 98 99 100 101 101 101 102 103 104
35 36 37 39 40 41 42 43 44 45 46 47 48 49 49 49 50 50 51 52 53 53 53 52 52 52 52 52 52 53 53 53 54 55 55 56 56 57 57 57 58 59 59 60 61 61 62 63 63 64 65 66 67 67 68 69 70 72 73 74 75 76 78 79 80 82 83 85 87 88 90 90 89 89 90 91 92 94 95 97 99 100 101 101 102 102 103 104
37 38 39 40 41 42 43 45 46 47 48 49 49 50 50 50 50 50 50 50 50 50 49 49 49 49 49 49 50 50 50 50 50 50 50 51 51 51 52 52 53 54 54 55 57 58 58 59 60 62 63 64 65 66 67 68 69 71 72 74 75 76 78 79 81 82 84 86 87 89 91 91 91 92 93 93 93 94 96 98 100 102 103 103 104 105 106 106
38 39 40 41 42 43 45 46 47 48 49 49 50 50 50 50 49 48 47 47 46 46 46 46 46 46 46 45 45 45 45 45 45 45 46 46 47 48 49 50 51 53 54 54 56 57 58 59 61 62 63 65 66 67 68 69 70 72 73 75 76 77 79 80 82 84 85 86 88 90 91 92 92 92 94 94 94 94 95 96 98 100 101 102 103 104 105 106
38 39 40 42 43 44 45 47 48 48 49 49 50 50 49 47 46 45 44 44 44 43 43 42 42 41 41 41 41 41 41 42 42 42 43 44 45 46 47 49 51 52 54 54 56 57 58 59 60 61 62 64 65 66 67 68 69 70 72 73 74 76 77 78 80 81 83 84 85 87 89 90 90 90 90 91 91 91 91 92 93 94 95 97 98 99 100 101
38 40 41 43 44 45 45 46 47 48 48 48 47 47 46 44 43 42 41 41 40 39 39 39 39 38 38 38 38 39 39 39 40 41 42 43 43 44 45 46 48 49 51 52 53 54 55 56 57 58 59 60 61 62 63 64 65 66 67 69 70 71 73 74 75 76 78 79 80 82 83 85 85 86 86 86 87 87 87 86 87 87 88 90 91 92 94 95
39 40 41 43 44 45 46 47 47 47 46 45 44 43 43 41 40 39 38 37 37 37 36 36 36 36 36 36 36 36 37 38 39 40 41 43 43 44 44 45 46 47 48 49 50 51 52 53 53 54 55 56 56 57 58 58 59 60 61 63 64 65 67 68 69 71 72 74 75 77 78 79 81 82 83 83 84 84 84 83 83 83 84 85 86 87 88 90
40 41 42 43 44 45 46 46 45 44 42 41 40 39 39 38 37 36 36 35 35 35 34 34 34 34 34 34 34 35 35 36 37 38 39 41 42 43 44 44 45 46 46 47 48 49 49 50 50 51 51 52 53 53 54 55 55 56 57 58 59 61 62 63 63 65 67 69 72 73 73 74 76 78 79 80 80 80 80 80 80 80 80 80 81 82 83 85
40 41 42 43 44 44 43 42 41 40 39 38 36 36 35 35 35 35 34 34 33 33 32 32 32 32 33 33 33 34 35 36 36 37 38 39 40 41 42 43 44 44 45 45 45 46 47 47 48 48 49 49 50 50 51 51 52 52 53 54 55 56 57 58 59 59 60 63 66 68 69 69 71 73 74 74 75 75 76 75 75 75 75 75 76 77 78 79
40 41 42 43 42 41 40 38 37 36 35 35 34 34 33 33 33 32 32 32 31 31 31 31 31 31 32 33 34 34 35 36 36 37 38 39 40 41 42 43 43 44 44 45 45 45 46 46 46 47 47 47 48 48 49 49 49 49 50 50 51 52 53 55 56 56 57 59 62 65 65 66 68 71 72 73 73 75 76 76 76 76 76 76 77 77 77 78
41 41 41 40 39 37 36 35 34 34 33 33 32 32 31 31 30 30 30 29 29 29 30 30 30 31 32 32 33 34 35 36 37 38 39 40 42 43 44 45 45 46 46 46 46 46 46 46 47 47 47 48 48 48 48 49 50 50 51 51 51 52 53 54 56 57 58 59 61 65 65 65 67 70 72 73 74 75 77 78 79 79 79 79 79 79 79 80
40 39 38 37 35 34 33 32 32 32 31 31 30 30 30 29 29 28 28 28 28 28 28 29 29 30 31 32 34 35 36 37 37 39 41 43 44 45 46 47 47 47 47 47 47 47 47 47 47 47 47 47 48 48 48 49 49 50 50 51 51 52 52 53 55 56 58 57 59 63 66 65 65 67 69 70 71 72 74 74 75 76 76 77 78 78 79 80
37 36 34 33 31 31 30 30 30 29 29 29 29 29 29 28 27 27 27 27 27 27 28 28 29 31 32 33 34 35 36 37 39 41 43 45 46 46 46 47 47 47 47 47 47 46 46 46 46 47 47 47 47 48 48 47 48 48 48 48 49 50 51 52 53 55 56 55 54 58 63 63 62 63 65 65 66 67 67 68 69 70 71 72 72 73 74 75
33 31 30 30 29 29 29 29 28 28 29 29 29 28 28 27 26 26 26 26 26 27 28 29 30 31 33 34 35 36 37 39 42 43 44 45 45 46 46 46 46 46 46 46 45 45 45 45 45 45 45 45 45 46 47 47 47 47 48 48 48 49 49 50 52 54 55 55 52 53 59 61 59 60 61 61 61 62 62 63 64 64 66 67 68 68 69 70
29 28 28 28 28 28 28 28 28 29 29 28 28 27 26 26 25 25 25 26 27 27 28 29 30 32 33 34 36 38 39 41 43 43 44 44 45 45 45 45 45 45 45 44 44 44 44 44 44 43 44 44 45 45 46 47 47 46 47 48 48 48 48 49 51 53 55 55 52 51 55 57 57 56 57 57 57 57 58 59 60 61 63 64 65 66 67 68
27 26 27 27 27 27 27 28 29 28 27 27 26 26 25 25 25 25 25 26 27 28 29 30 31 33 34 36 37 39 40 41 42 43 43 44 44 44 44 44 44 44 44 45 45 45 45 46 46 46 45 46 46 46 46 47 48 46 45 46 47 47 47 47 48 51 54 55 52 51 53 54 54 54 54 54 55 55 57 58 59 61 62 64 64 64 65 66
25 26 26 26 27 27 28 28 27 26 26 25 25 25 24 24 24 25 26 27 27 28 29 30 32 34 35 37 38 40 41 42 42 42 43 43 43 43 43 44 44 45 46 47 47 48 48 48 48 48 48 47 47 47 46 46 48 49 47 47 47 46 46 46 47 50 53 55 53 52 54 55 53 53 53 54 55 56 57 59 59 60 62 63 64 64 63 64
24 25 25 26 26 27 26 26 26 25 24 24 24 24 24 24 25 26 27 27 27 28 30 31 33 35 36 37 39 40 40 41 41 42 42 42 43 43 44 45 46 47 48 49 50 50 50 51 51 51 51 51 50 50 49 49 50 51 50 49 48 47 47 47 48 49 51 53 52 51 53 55 52 52 52 53 55 56 56 58 58 59 60 62 63 63 63 63
23 24 25 25 25 25 25 25 24 24 23 23 23 24 24 25 26 27 27 27 28 29 31 32 34 35 36 38 39 39 40 40 41 41 42 42 43 44 46 47 48 49 51 52 53 53 53 54 54 55 55 55 55 55 54 53 53 53 52 51 50 49 48 48 48 49 50 53 53 50 51 55 54 53 54 54 55 56 57 58 58 58 59 61 62 63 63 63
23 24 24 24 24 24 24 23 23 22 23 23 24 25 26 27 27 27 27 27 28 30 31 33 34 35 37 38 38 39 40 40 41 42 43 44 45 46 47 48 50 51 53 54 56 57 58 58 59 60 60 60 59 59 59 58 57 57 56 55 54 52 50 49 49 51 51 53 55 53 52 55 58 58 59 59 59 60 60 61 61 61 62 62 63 64 64 64
23 23 23 23 23 23 22 22 22 22 23 24 25 26 27 27 27 27 27 28 29 31 32 34 35 36 37 37 38 39 40 41 42 43 44 45 46 47 49 50 52 54 55 57 58 60 61 62 63 65 66 66 66 66 66 65 64 63 62 61 59 57 55 52 52 54 54 54 56 58 56 56 59 61 62 63 63 63 64 64 64 64 65 66 67 67 67 67
22 22 23 23 22 22 22 22 23 23 25 26 26 27 28 28 27 27 28 29 31 32 33 34 35 36 37 38 39 39 41 42 43 44 45 46 48 49 50 52 53 55 57 58 60 62 64 65 67 68 69 70 71 71 71 71 71 70 68 67 65 63 60 57 55 56 56 55 56 59 60 59 59 61 63 64 64 65 65 66 66 66 67 68 69 70 70 70
22 22 22 22 21 21 22 23 24 25 26 27 28 28 28 28 28 29 29 31 32 33 33 34 35 36 37 38 39 40 42 43 44 45 46 47 48 50 51 52 54 55 57 59 61 63 64 66 68 70 71 73 74 75 76 76 75 75 73 71 70 68 66 62 59 58 58 58 58 59 61 61 60 61 62 63 64 65 66 68 68 68 68 69 69 70 70 71
22 22 21 21 21 22 22 24 25 26 27 28 29 29 29 29 29 29 30 31 32 33 33 34 36 37 38 39 40 41 43 44 45 46 47 48 49 50 52 53 54 56 57 59 61 62 64 66 68 69 71 73 74 76 77 78 78 78 77 75 74 72 70 66 62 60 60 61 61 60 61 62 62 62 63 63 65 65 67 68 69 68 68 68 69 70 70 71
22 22 21 21 21 22 23 24 25 26 28 29 29 29 29 29 29 30 31 32 32 33 34 35 36 37 38 40 41 42 43 44 45 46 47 48 49 51 52 53 55 56 57 59 60 62 63 65 67 69 70 72 73 75 76 78 79 79 80 79 77 76 74 70 66 64 63 62 62 61 61 62 62 63 64 65 65 66 67 68 69 69 69 69 70 70 71 71
22 22 22 22 22 22 23 24 25 27 28 29 29 29 29 29 30 31 31 32 33 34 35 36 37 38 39 40 41 42 43 44 46 47 47 48 49 51 52 53 55 56 57 59 60 62 63 65 66 68 70 71 73 74 75 77 79 80 81 81 80 79 79 76 72 69 66 64 63 63 63 63 64 64 66 67 67 67 67 69 70 71 71 71 71 71 72 71
22 22 22 22 22 23 23 25 26 27 28 29 29 29 29 29 30 31 32 33 34 35 35 36 37 38 39 40 42 43 44 45 46 47 48 49 50 51 52 53 55 56 57 59 60 62 63 64 66 67 70 71 73 74 76 77 78 80 81 82 82 82 82 81 77 73 70 68 66 65 65 66 67 67 68 70 71 70 70 70 71 71 72 72 72 72 72 73
Wind_Direction
228 231 235 239 242 245 246 246 248 249 251 253 255 255 253 251 249 248 248 249 250 250 250 251 252 253 254 255 255 256 256 257 257 257 258 257 257 256 256 256 256 256 256 256 257 257 258 258 258 258 259 259 259 259 259 259 259 259 258 259 259 259 260 261 262 262 262 262 262 262 263 264 265 265 265 265 265 266 267 267 268 268 268 268 268 268 268 268
231 232 235 237 240 242 244 247 248 249 250 251 253 256 257 257 256 254 253 253 253 253 253 253 254 254 255 255 255 256 256 256 257 258 258 258 258 258 258 258 258 259 259 259 259 259 259 260 260 260 260 260 260 260 260 260 260 259 259 259 259 259 259 260 261 261 262 261 261 262 263 264 265 265 265 265 266 267 267 268 268 269 269 269 269 269 268 268
233 234 236 237 240 241 243 245 247 249 251 252 253 254 256 257 258 258 258 257 257 256 255 256 257 257 258 258 258 258 258 258 257 257 258 258 259 259 260 260 260 260 261 261 261 262 262 262 262 262 262 262 262 261 262 262 262 262 261 261 261 261 261 261 262 263 263 262 261 262 263 264 265 265 265 266 266 267 268 268 268 269 269 269 269 269 268 268
234 237 238 239 240 242 243 245 246 248 250 252 254 255 256 257 258 258 258 259 260 259 258 258 259 260 261 262 262 261 260 260 259 259 259 259 259 260 260 260 261 262 262 262 263 263 263 263 263 263 263 263 263 263 263 263 264 264 264 263 263 263 263 264 264 265 265 265 264 264 264 265 265 266 266 266 266 267 267 268 269 269 269 268 268 268 268 268
235 237 240 242 243 244 244 245 247 248 250 251 253 255 256 257 258 258 258 259 260 261 262 262 262 263 264 265 264 264 263 263 262 261 261 261 261 261 261 261 261 261 261 262 263 263 264 264 264 265 265 264 264 265 265 265 264 265 265 265 265 265 265 265 266 266 266 267 267 266 265 265 266 267 267 267 267 267 267 268 269 269 269 269 269 268 268 269
238 238 240 243 245 247 247 247 248 249 250 252 253 254 255 257 258 258 258 258 259 260 261 263 263 264 265 265 265 265 266 266 265 264 264 264 263 263 263 262 262 262 262 262 262 262 263 263 263 264 264 264 264 265 266 266 265 266 266 266 266 266 266 266 266 267 267 267 268 268 267 266 266 267 268 268 268 268 268 268 268 268 269 269 269 269 269 269
241 241 242 243 245 248 250 251 251 252 253 254 254 255 255 256 257 257 258 258 258 258 260 261 262 263 264 265 265 266 266 266 266 266 265 264 264 264 263 263 264 264 264 265 265 265 264 264 264 264 264 265 265 265 266 266 266 266 267 267 267 267 267 267 266 267 268 268 268 268 268 267 267 267 267 268 268 268 267 267 267 267 268 269 269 269 269 269
243 244 245 246 246 248 249 251 253 254 254 255 256 256 257 257 257 258 259 259 259 260 260 261 262 263 264 264 265 265 266 265 265 265 264 263 262 262 262 262 262 262 263 264 264 265 265 265 265 265 265 265 265 265 266 266 266 266 267 268 268 268 268 268 268 268 268 269 269 269 269 268 267 267 268 268 269 268 268 267 267 267 267 268 269 269 269 270
246 247 247 248 249 250 250 251 253 254 255 255 255 255 256 257 257 258 258 259 259 259 260 261 262 262 263 264 264 264 265 265 265 265 264 264 264 263 263 262 262 262 262 262 262 263 263 263 263 263 263 264 264 264 265 265 265 265 266 267 267 268 268 268 268 269 269 269 269 269 269 268 268 269 269 269 269 269 269 268 268 268 268 268 268 269 270 270
250 250 251 251 252 253 253 254 254 255 256 256 256 256 257 257 257 257 257 257 257 257 258 258 259 261 262 262 263 264 264 265 265 265 265 265 265 265 265 265 264 264 264 264 264 264 264 264 264 264 264 264 265 265 265 265 266 266 266 266 267 268 268 268 268 269 269 269 269 269 269 269 269 270 270 270 270 270 270 270 270 270 270 270 270 270 270 271
254 254 254 255 255 256 256 256 257 258 258 259 259 259 259 259 259 259 258 258 258 258 258 259 260 261 262 262 262 263 264 264 264 264 264 264 265 265 265 265 266 266 266 266 266 266 266 266 266 266 266 266 267 267 267 267 267 267 267 268 268 269 269 269 269 269 269 269 269 269 269 270 270 270 270 270 270 270 271 271 271 271 271 271 271 271 271 271
255 255 255 256 257 257 258 259 259 260 260 261 261 262 262 262 262 262 262 261 261 260 260 261 262 263 264 265 265 265 265 266 266 266 266 265 265 265 265 265 265 266 266 266 266 266 266 267 267 267 267 267 267 268 268 268 268 268 268 268 269 269 269 269 269 269 269 270 270 270 270 271 271 270 270 270 270 270 271 271 272 272 272 272 272 271 271 271
257 257 257 257 257 258 258 259 259 260 261 262 262 263 263 264 264 264 265 265 265 264 264 264 264 265 266 267 267 267 268 268 268 269 269 268 268 268 268 267 267 267 267 267 267 267 267 267 267 267 267 267 267 267 268 268 268 268 268 268 268 269 269 269 269 269 269 270 270 270 270 271 271 271 271 271 271 271 271 272 272 273 273 273 273 273 273 272
262 261 260 259 259 259 259 259 260 261 261 262 262 263 263 264 264 265 266 266 267 267 267 267 267 267 268 268 269 269 269 269 270 270 270 270 270 270 270 270 270 270 270 269 269 270 270 270 270 270 269 269 269 269 270 270 270 270 270 270 270 270 271 271 271 271 271 271 271 272 272 272 272 272 272 272 273 273 273 273 273 274 274 274 274 274 274 274
265 264 263 262 262 262 263 263 263 264 264 264 264 264 265 265 265 265 266 267 267 268 268 269 269 269 269 270 270 270 270 271 271 271 271 271 271 272 272 271 271 271 271 271 271 271 271 271 271 271 271 271 271 271 271 272 272 272 272 272 272 272 272 273 273 273 273 273 273 273 274 274 273 273 273 273 274 274 274 274 274 274 274 274 274 274 274 274
267 266 266 266 266 266 266 266 266 266 267 266 267 266 267 267 267 267 267 268 268 269 269 270 270 270 271 271 271 271 271 271 271 271 272 272 272 272 272 272 272 272 272 272 272 273 273 272 272 272 272 272 272 273 273 273 273 273 273 273 273 273 273 273 273 273 273 273 273 273 273 273 273 273 273 273 274 274 274 274 274 274 274 274 274 274 274 275
273 273 273 273 272 272 272 271 271 271 271 271 271 270 271 271 271 270 271 271 271 271 272 272 272 272 273 273 272 273 272 272 272 272 272 273 273 273 273 273 273 273 273 273 273 274 274 273 273 274 274 274 274 274 274 274 274 274 274 274 274 274 274 274 275 275 275 274 274 274 273 273 273 273 273 274 274 274 274 274 274 274 274 274 274 274 274 275
281 281 281 281 280 279 279 279 278 277 277 276 276 275 275 274 274 274 273 273 273 273 273 274 274 274 274 274 275 275 275 275 275 275 275 275 275 275 275 275 274 274 275 275 275 275 275 275 275 275 275 275 276 276 276 276 276 276 276 276 276 276 276 276 275 275 275 275 275 275 275 274 274 274 274 274 274 274 275 274 274 274 274 274 274 274 275 275
287 288 287 287 287 286 286 285 284 283 281 280 280 279 278 277 277 277 276 275 275 275 275 275 275 276 276 277 277 277 278 278 278 278 278 278 278 277 277 277 277 277 277 277 277 277 277 277 277 277 277 277 277 277 277 277 278 278 278 278 277 277 277 277 276 276 276 275 275 275 275 275 275 275 275 275 275 275 275 275 275 275 275 275 275 274 274 274
291 291 291 291 291 290 290 288 287 286 285 283 282 282 281 280 279 279 279 278 277 277 277 277 278 278 279 279 279 280 280 280 281 281 281 281 280 280 280 280 280 280 280 280 280 279 279 279 280 280 280 280 279 279 279 279 279 279 279 279 279 279 279 279 278 278 277 277 276 276 276 276 276 276 276 275 275 275 275 275 275 275 275 275 275 275 275 275
293 293 293 292 291 290 289 288 288 287 286 286 285 285 284 283 282 282 282 282 282 281 281 281 281 281 281 281 281 282 282 282 282 282 282 283 282 282 282 282 281 281 281 281 281 281 281 281 281 281 281 281 281 281 281 280 280 280 280 279 279 279 279 279 279 279 279 279 278 278 277 277 277 277 277 277 276 276 275 275 275 275 275 274 274 275 275 275
293 294 294 293 292 290 289 289 288 288 288 288 288 287 287 286 286 285 285 285 285 285 285 285 285 284 284 284 284 284 284 283 283 283 283 283 283 283 283 283 282 282 282 282 282 282 281 281 281 281 281 281 281 281 281 281 281 280 280 279 279 279 279 279 278 278 279 278 278 278 278 278 278 278 278 277 277 276 276 276 275 275 274 274 274 275 275 275
292 293 294 294 293 292 292 292 291 291 291 291 290 289 289 289 288 288 288 288 287 288 288 288 287 287 286 286 286 285 285 284 284 284 283 283 283 283 283 283 283 282 282 282 282 281 281 281 281 281 281 281 281 281 281 281 280 280 280 280 279 279 279 278 278 278 278 278 278 278 278 278 278 277 277 277 277 276 276 276 275 275 275 275 275 275 275 275
294 295 295 294 294 295 295 295 295 295 295 294 293 293 292 292 292 292 292 291 291 291 291 290 290 289 288 288 287 287 286 286 285 285 285 284 284 283 283 283 283 283 283 283 283 282 282 282 281 281 281 281 280 280 280 280 280 279 279 279 279 279 279 279 278 278 278 278 278 278 278 278 278 278 277 277 277 277 276 276 276 276 276 276 276 276 276 276
295 295 295 296 296 297 298 299 299 298 297 297 296 296 296 296 296 296 296 295 295 294 293 292 292 291 290 290 289 288 288 287 287 287 287 286 286 286 285 285 285 285 284 284 284 284 283 283 283 282 282 281 281 281 280 280 280 280 279 279 279 279 279 279 278 278 278 278 278 278 278 278 278 278 278 278 278 277 277 277 277 277 277 277 277 277 277 277
294 295 296 297 299 300 300 300 300 299 299 299 299 299 300 300 300 299 299 298 297 296 295 294 293 293 292 292 291 291 290 290 290 290 289 289 289 289 288 288 288 287 287 286 286 285 285 285 285 284 283 283 282 282 281 281 281 281 281 280 280 280 280 280 280 280 280 279 279 279 279 279 279 279 279 279 278 278 278 278 278 278 278 278 278 278 277 277
293 295 297 299 300 300 300 300 300 300 301 301 302 302 302 302 302 301 300 299 298 297 296 296 296 295 295 295 295 294 294 294 293 293 293 292 292 292 292 291 291 290 290 289 288 288 287 286 286 286 285 285 284 283 283 282 282 282 282 282 282 282 282 281 281 281 281 281 281 281 281 281 281 280 280 279 279 280 280 280 280 280 280 280 279 279 279 278
295 297 298 299 298 298 299 300 301 302 303 304 305 305 304 304 303 302 301 300 299 299 299 299 299 298 298 298 298 298 297 297 297 296 296 296 296 295 295 294 293 293 292 291 291 290 290 289 288 288 287 287 286 286 285 285 285 284 284 284 284 284 284 283 283 283 282 282 282 283 283 283 282 282 281 281 281 281 281 281 281 281 281 281 281 280 280 280
297 298 298 297 298 299 300 302 303 304 305 306 306 305 305 304 303 303 302 302 302 302 302 302 301 301 301 301 301 300 300 300 300 300 300 299 299 299 299 299 298 297 296 295 294 294 293 292 291 291 290 289 289 288 288 287 287 286 286 285 285 284 284 284 284 284 284 284 284 284 283 283 283 283 283 282 282 281 281 281 281 281 281 281 281 281 281 280
296 296 297 298 300 301 303 305 306 307 307 307 306 306 305 305 306 306 306 306 305 305 305 305 304 304 304 304 304 305 304 305 304 304 303 303 302 302 302 301 300 299 298 297 296 295 295 294 292 291 291 290 289 289 288 288 287 287 286 286 286 285 285 285 285 285 285 285 285 285 285 285 285 285 284 284 284 283 282 282 282 282 282 282 282 281 281 281
295 297 298 300 303 305 307 307 308 308 308 307 307 307 308 308 309 309 309 308 308 308 307 308 308 308 309 309 309 309 309 309 308 308 307 305 304 303 302 302 301 301 300 300 299 298 297 296 295 294 293 292 291 291 290 290 289 288 288 288 288 287 287 287 287 286 286 286 286 286 287 287 287 287 287 286 286 286 285 285 284 283 283 283 282 282 282 281
297 299 302 304 307 309 310 309 309 309 308 309 309 310 310 311 311 311 311 311 311 311 311 312 312 312 313 313 313 313 312 312 312 312 312 312 311 311 310 309 308 307 306 306 304 303 302 301 300 299 298 296 296 294 293 293 292 291 291 291 290 290 290 290 291 291 291 291 290 290 290 291 291 291 290 290 290 289 289 289 288 287 286 286 285 285 284 283
300 304 307 309 310 310 310 309 310 310 311 312 312 312 312 312 313 314 314 315 315 315 316 316 317 317 317 317 317 317 316 316 317 317 317 317 317 317 317 316 315 313 312 311 309 308 306 305 304 303 302 301 301 300 299 298 297 297 296 296 296 295 294 294 294 294 294 293 293 293 292 292 292 292 292 292 292 292 291 291 290 289 288 287 287 286 285 284
306 309 311 311 311 310 310 311 312 313 313 313 313 314 315 316 317 318 318 319 319 319 320 321 321 321 321 321 321 321 321 321 321 321 321 321 321 321 321 320 319 318 316 315 313 312 311 310 309 308 307 306 306 305 304 302 301 299 299 298 297 296 295 294 293 292 292 293 293 293 294 294 295 295 295 295 295 295 295 295 294 293 292 291 290 289 288 286
311 312 312 311 311 312 313 314 314 314 315 316 317 318 319 320 320 320 321 322 323 324 324 325 325 325 325 326 326 326 325 325 325 326 327 327 327 327 326 326 325 324 323 321 320 319 318 317 315 314 313 312 310 309 307 306 304 303 302 301 299 299 298 298 298 297 297 297 298 297 298 299 300 300 300 301 301 302 301 301 300 300 299 298 296 295 294 292
312 312 312 312 313 314 315 315 316 318 319 320 321 322 322 323 323 324 325 327 328 328 328 329 329 329 329 329 329 329 329 330 331 331 332 332 333 333 332 331 331 329 328 327 326 325 324 323 322 320 319 317 316 315 314 313 311 310 309 308 307 307 306 306 305 304 304 303 303 302 303 304 303 302 302 303 303 303 302 302 302 301 301 300 300 299 298 297
312 312 313 314 315 316 317 319 320 321 322 323 324 325 326 327 328 329 331 331 331 331 331 331 332 331 331 332 332 333 334 334 335 335 336 337 337 336 335 335 334 333 333 332 331 330 329 328 326 325 323 322 321 320 318 317 315 314 314 313 312 311 310 309 307 307 306 306 306 304 304 305 303 301 302 302 302 301 301 301 301 301 301 301 301 300 300 299
312 314 315 316 317 319 321 323 323 324 326 328 329 330 331 332 333 334 334 334 334 334 333 334 334 334 335 336 336 337 338 338 339 340 341 340 339 338 338 337 337 337 337 336 335 334 333 332 331 330 329 327 325 323 322 320 318 317 316 316 315 314 313 312 310 309 307 307 307 305 305 305 304 302 302 302 302 302 302 302 301 301 301 300 300 299 299 298
315 316 317 319 322 324 325 326 328 330 332 334 334 334 335 336 337 336 336 335 335 336 335 336 336 337 338 339 340 341 342 343 344 343 342 341 341 341 341 342 342 342 341 341 340 339 339 338 337 336 334 332 331 329 327 326 325 324 322 321 320 319 318 316 313 311 309 309 310 308 306 305 305 305 304 305 304 304 304 304 303 303 303 302 301 301 299 298
318 319 321 324 325 327 329 332 335 336 337 336 337 338 338 338 338 337 337 337 337 337 337 338 339 340 342 343 345 346 346 346 346 345 344 344 345 346 346 347 347 346 346 346 346 346 345 345 344 343 341 339 338 336 334 331 330 330 328 326 324 322 320 318 316 314 312 312 314 312 308 307 308 309 308 308 308 307 307 306 307 307 306 305 304 304 304 303
321 324 325 327 329 332 336 338 339 338 338 339 340 340 339 338 337 337 339 339 339 339 340 342 343 345 347 348 349 349 349 348 348 348 348 349 351 352 352 352 352 352 353 353 353 353 353 352 351 350 349 347 346 343 341 338 334 333 331 329 327 326 325 323 322 319 317 317 318 317 314 313 315 315 315 314 313 313 312 312 312 312 311 310 310 311 311 311
325 327 329 332 336 339 340 340 339 339 341 342 342 341 339 337 338 340 341 341 342 343 344 346 348 350 351 351 352 352 351 351 351 352 354 355 357 358 358 359 360 0 1 2 2 1 1 0 359 357 355 354 352 350 347 344 340 337 337 335 333 331 330 329 328 326 323 322 324 325 322 320 321 321 320 319 319 318 318 317 317 317 317 316 316 315 315 313
329 331 335 339 341 341 340 340 341 342 343 343 342 340 339 340 342 343 344 344 345 347 349 351 353 353 354 354 354 354 354 354 355 357 358 0 2 3 4 6 6 7 8 8 8 8 8 7 6 4 2 360 358 356 354 351 348 345 343 341 339 337 336 336 335 332 329 327 330 332 328 324 325 325 324 323 322 322 322 321 321 321 321 320 319 317 316 315
333 337 340 342 342 341 341 343 344 343 343 343 343 342 343 345 346 347 348 349 351 352 354 355 356 356 356 356 356 356 356 358 359 0 2 4 6 8 9 10 11 11 12 12 12 12 12 12 10 9 8 6 4 2 359 357 355 352 349 346 345 343 342 343 340 336 334 334 333 335 333 329 329 330 329 328 327 326 326 325 326 325 324 322 321 320 319 318
339 342 342 341 341 342 344 344 344 343 345 346 346 346 348 350 351 352 353 354 355 356 357 358 359 358 358 357 357 358 359 360 2 3 5 7 8 10 11 12 13 13 14 14 14 13 13 13 12 11 11 9 8 7 4 2 360 357 354 352 350 348 347 348 346 341 342 341 338 339 340 337 335 335 334 333 333 332 331 330 330 329 328 327 326 324 323 322
343 343 340 340 342 343 345 345 344 345 349 350 350 351 353 355 356 357 358 358 359 359 0 0 360 359 359 358 359 360 1 2 4 6 7 9 10 11 12 13 13 14 14 14 14 14 13 13 13 12 12 11 10 9 8 6 4 2 360 356 354 352 351 352 351 347 348 347 343 342 344 343 340 338 337 337 336 336 335 333 334 334 333 332 331 329 328 327
342 340 340 341 342 343 345 345 346 349 352 352 353 356 358 359 360 0 0 1 1 2 1 1 0 360 360 360 1 2 3 4 5 7 8 9 10 10 11 12 13 14 14 14 14 14 13 12 12 12 12 11 11 10 9 8 7 5 3 360 357 354 353 355 355 351 350 350 348 346 346 345 344 341 340 339 338 338 337 336 336 336 336 335 334 333 332 331
340 338 339 340 341 343 346 347 349 352 354 355 357 360 1 2 2 2 3 3 3 3 2 1 1 1 1 1 2 3 3 5 6 6 8 8 9 10 10 11 12 12 13 13 13 13 13 12 12 12 11 11 11 10 10 9 8 7 6 3 360 357 355 356 356 353 351 352 352 350 348 346 345 343 342 341 340 340 339 338 338 338 337 337 336 335 334 333
338 338 338 339 341 344 347 349 352 354 356 358 1 2 3 3 3 3 4 3 3 3 2 1 1 1 1 1 2 3 3 4 5 5 6 7 7 8 8 9 10 11 11 11 11 11 12 11 11 11 11 10 10 10 10 9 9 8 7 5 3 359 357 357 357 354 354 353 353 352 349 347 346 345 343 342 342 342 341 340 339 339 338 338 337 336 336 335
337 337 338 338 342 346 349 351 354 356 358 1 2 3 4 4 3 4 4 4 3 3 2 2 1 1 1 1 2 2 3 3 3 4 5 5 5 6 7 7 8 9 10 10 10 10 10 10 9 9 10 10 10 10 10 9 8 8 8 7 5 2 358 358 359 357 355 354 353 351 350 348 348 346 345 344 343 344 343 341 340 340 339 339 338 338 337 336
338 338 338 340 344 348 350 353 356 358 0 2 2 3 3 3 3 3 3 3 3 2 2 1 0 360 360 360 0 1 1 2 2 2 3 3 4 4 5 5 6 7 7 8 9 9 9 9 9 8 8 9 9 8 9 9 8 8 8 7 6 4 0 359 0 359 356 355 353 352 350 349 349 348 347 346 345 345 344 343 341 341 341 340 340 339 338 337
339 339 340 343 347 349 352 355 357 359 1 1 1 1 1 1 2 2 2 2 1 1 0 360 359 359 359 359 359 360 0 0 0 0 0 1 2 2 3 3 4 5 5 6 7 7 7 8 8 7 6 7 7 7 7 9 8 8 8 7 7 6 2 0 1 360 357 356 354 353 352 350 350 350 349 348 346 346 346 344 343 343 342 342 341 340 339 338
Height
10728 10729 10730 10731 10732 10733 10734 10735 10736 10736 10736 10737 10737 10738 10739 10740 10740 10741 10741 10741 10741 10741 10741 10741 10741 10742 10742 10742 10742 10742 10741 10741 10741 10741 10741 10741 10741 10740 10740 10740 10740 10739 10739 10739 10738 10737 10737 10736 10736 10736 10735 10734 10734 10733 10731 10732 10732 10732 10731 10731 10727 10723 10723 10723 10725 10725 10724 10724 10722 10719 10719 10716 10713 10717 10717 10714 10712 10709 10706 10703 10701 10700 10700 10701 10702 10704 10704 10701
10727 10728 10729 10729 10730 10731 10732 10732 10733 10733 10734 10734 10734 10735 10736 10737 10737 10738 10738 10738 10738 10738 10738 10738 10738 10738 10738 10738 10738 10737 10737 10737 10737 10737 10737 10736 10736 10736 10735 10735 10735 10734 10733 10733 10733 10732 10732 10731 10730 10730 10730 10728 10728 10727 10725 10725 10725 10725 10725 10723 10718 10716 10718 10719 10719 10717 10714 10715 10715 10713 10714 10710 10706 10707 10707 10706 10705 10703 10699 10695 10693 10691 10691 10692 10692 10692 10691 10689
10724 10725 10726 10727 10728 10729 10729 10730 10730 10730 10731 10731 10731 10732 10732 10733 10734 10734 10734 10734 10734 10734 10734 10734 10734 10734 10734 10734 10734 10733 10732 10733 10733 10732 10732 10732 10731 10731 10730 10730 10729 10729 10728 10728 10727 10727 10726 10725 10725 10724 10723 10722 10721 10721 10720 10718 10717 10718 10718 10714 10710 10710 10712 10712 10712 10709 10703 10704 10709 10709 10706 10702 10697 10696 10697 10699 10699 10695 10691 10686 10683 10682 10683 10682 10680 10678 10677 10676
10722 10723 10723 10724 10725 10726 10727 10727 10727 10728 10728 10728 10728 10729 10729 10729 10730 10730 10730 10730 10729 10729 10729 10730 10729 10729 10730 10729 10729 10728 10727 10728 10728 10727 10727 10727 10726 10726 10725 10724 10724 10723 10722 10722 10721 10720 10720 10719 10718 10717 10717 10716 10715 10713 10713 10712 10711 10710 10708 10704 10702 10704 10704 10705 10704 10700 10693 10693 10699 10701 10698 10694 10688 10685 10687 10691 10691 10688 10683 10677 10673 10672 10672 10671 10668 10666 10664 10664
10719 10720 10721 10721 10722 10723 10723 10724 10724 10725 10725 10725 10725 10725 10725 10726 10726 10726 10726 10726 10725 10725 10725 10725 10725 10725 10725 10724 10723 10722 10722 10723 10722 10722 10721 10721 10720 10720 10719 10718 10718 10717 10716 10715 10715 10714 10713 10712 10711 10711 10709 10709 10708 10706 10705 10704 10704 10703 10699 10695 10695 10696 10697 10697 10695 10690 10685 10684 10687 10689 10688 10685 10681 10677 10677 10680 10681 10679 10675 10670 10665 10661 10659 10657 10655 10655 10654 10653
10716 10717 10718 10718 10718 10719 10720 10720 10720 10721 10721 10721 10721 10722 10722 10722 10722 10722 10722 10721 10721 10721 10720 10720 10720 10720 10720 10719 10718 10717 10717 10717 10716 10716 10715 10715 10714 10713 10713 10712 10711 10710 10710 10709 10708 10707 10706 10706 10705 10704 10702 10700 10701 10699 10697 10695 10696 10695 10690 10686 10686 10687 10689 10689 10685 10680 10677 10676 10676 10676 10675 10675 10674 10670 10668 10669 10671 10669 10665 10661 10657 10653 10649 10645 10642 10642 10642 10642
10713 10714 10714 10715 10715 10716 10716 10716 10716 10717 10717 10717 10717 10717 10718 10718 10718 10718 10717 10717 10717 10716 10716 10715 10715 10715 10714 10714 10713 10712 10712 10711 10710 10710 10710 10709 10708 10707 10706 10705 10705 10704 10703 10702 10701 10700 10699 10698 10698 10697 10694 10693 10693 10692 10689 10687 10688 10687 10680 10678 10678 10678 10679 10678 10676 10673 10669 10667 10667 10665 10664 10665 10664 10661 10659 10659 10660 10658 10653 10650 10647 10644 10640 10635 10631 10629 10629 10629
10710 10710 10711 10712 10712 10712 10713 10713 10713 10713 10713 10713 10713 10713 10713 10713 10714 10713 10713 10713 10712 10712 10711 10711 10710 10710 10710 10709 10708 10707 10707 10706 10705 10705 10704 10703 10702 10701 10700 10699 10698 10697 10696 10695 10693 10693 10692 10691 10691 10689 10686 10685 10685 10684 10682 10679 10679 10678 10673 10670 10668 10668 10670 10667 10665 10665 10661 10658 10658 10655 10653 10653 10652 10652 10652 10651 10648 10643 10640 10638 10636 10633 10630 10626 10622 10618 10616 10615
10707 10707 10708 10708 10708 10709 10709 10709 10709 10709 10709 10709 10709 10709 10709 10709 10709 10709 10709 10708 10708 10707 10706 10706 10705 10705 10704 10704 10703 10702 10701 10701 10700 10699 10698 10697 10696 10695 10694 10693 10692 10690 10689 10688 10686 10686 10684 10683 10683 10681 10679 10677 10676 10675 10674 10671 10669 10670 10668 10662 10657 10657 10660 10658 10655 10654 10652 10650 10649 10644 10641 10641 10641 10642 10644 10642 10636 10629 10625 10624 10622 10620 10618 10616 10612 10609 10606 10603
10704 10704 10704 10705 10705 10705 10705 10705 10705 10705 10705 10705 10705 10705 10705 10705 10704 10704 10704 10704 10703 10702 10702 10701 10700 10699 10699 10698 10698 10697 10695 10695 10694 10693 10692 10691 10689 10688 10687 10685 10684 10683 10681 10679 10678 10678 10676 10675 10674 10673 10670 10669 10668 10666 10665 10662 10660 10660 10659 10654 10649 10647 10648 10647 10646 10644 10642 10640 10639 10633 10629 10631 10632 10632 10633 10631 10624 10617 10612 10608 10607 10606 10605 10604 10602 10599 10595 10591
10701 10701 10701 10701 10701 10701 10701 10701 10700 10700 10700 10700 10700 10700 10700 10699 10699 10699 10699 10699 10698 10698 10697 10696 10695 10694 10693 10693 10693 10691 10690 10689 10688 10687 10685 10684 10683 10681 10679 10678 10676 10675 10673 10671 10669 10669 10668 10665 10665 10663 10661 10660 10660 10657 10654 10652 10651 10649 10648 10645 10641 10638 10637 10636 10636 10635 10631 10628 10627 10620 10618 10622 10623 10621 10621 10619 10613 10606 10600 10596 10593 10592 10591 10590 10588 10585 10582 10579
10698 10698 10698 10698 10697 10697 10697 10697 10696 10696 10696 10695 10695 10695 10694 10694 10693 10693 10693 10693 10692 10692 10691 10690 10689 10688 10686 10686 10686 10685 10683 10682 10681 10680 10678 10677 10676 10674 10672 10671 10669 10667 10665 10662 10660 10660 10659 10657 10656 10654 10652 10651 10650 10648 10645 10642 10640 10639 10638 10636 10631 10628 10627 10625 10624 10624 10621 10618 10615 10608 10607 10612 10612 10609 10608 10606 10602 10597 10591 10586 10582 10579 10576 10575 10573 10570 10568 10566
10695 10695 10695 10695 10694 10694 10693 10693 10693 10692 10692 10691 10691 10690 10690 10689 10688 10688 10687 10687 10686 10685 10685 10684 10683 10682 10680 10679 10678 10677 10676 10675 10673 10672 10670 10668 10667 10666 10664 10662 10660 10659 10656 10654 10652 10651 10650 10648 10647 10645 10643 10643 10641 10639 10636 10632 10629 10628 10628 10627 10621 10618 10616 10613 10612 10612 10611 10608 10603 10597 10597 10601 10600 10596 10594 10593 10590 10586 10581 10576 10571 10566 10563 10560 10557 10555 10552 10550
10692 10692 10692 10692 10691 10691 10690 10690 10689 10689 10688 10687 10687 10686 10685 10684 10683 10683 10682 10681 10680 10680 10679 10678 10677 10675 10674 10673 10671 10670 10669 10667 10666 10664 10662 10660 10658 10657 10655 10653 10651 10650 10647 10645 10643 10642 10640 10639 10637 10635 10633 10633 10631 10628 10625 10622 10620 10617 10617 10614 10610 10608 10605 10602 10601 10600 10599 10596 10591 10588 10587 10589 10587 10583 10582 10579 10577 10574 10569 10565 10560 10555 10551 10547 10543 10540 10536 10534
10690 10689 10689 10689 10688 10688 10687 10686 10686 10685 10684 10683 10683 10682 10681 10680 10679 10678 10677 10676 10675 10674 10673 10672 10671 10669 10668 10666 10665 10663 10662 10660 10659 10657 10655 10653 10651 10649 10647 10645 10643 10641 10638 10637 10635 10634 10632 10630 10628 10625 10623 10623 10621 10618 10615 10612 10610 10608 10606 10602 10598 10598 10594 10591 10590 10588 10587 10583 10581 10577 10574 10575 10574 10571 10569 10566 10564 10561 10557 10553 10549 10544 10539 10534 10530 10526 10522 10519
10688 10687 10686 10686 10685 10685 10684 10684 10683 10682 10681 10680 10679 10678 10677 10675 10674 10674 10673 10672 10670 10669 10668 10667 10665 10663 10662 10660 10658 10657 10656 10653 10652 10650 10648 10646 10644 10642 10639 10637 10635 10632 10630 10628 10627 10626 10623 10621 10618 10615 10614 10613 10611 10609 10605 10602 10599 10598 10596 10591 10587 10585 10583 10581 10579 10576 10575 10571 10569 10567 10563 10561 10560 10558 10557 10554 10552 10548 10545 10541 10537 10531 10526 10521 10517 10513 10510 10506
10685 10685 10684 10684 10683 10682 10681 10681 10680 10679 10677 10676 10675 10674 10673 10671 10670 10670 10669 10667 10666 10664 10663 10661 10660 10658 10656 10654 10652 10651 10649 10646 10645 10643 10641 10639 10637 10634 10632 10629 10627 10625 10622 10620 10619 10617 10614 10611 10608 10606 10604 10603 10601 10599 10595 10591 10587 10586 10585 10582 10576 10573 10571 10571 10568 10564 10561 10557 10555 10554 10551 10548 10546 10546 10545 10543 10540 10537 10533 10530 10524 10518 10512 10508 10504 10501 10498 10493
10683 10682 10682 10681 10680 10679 10678 10677 10676 10675 10674 10673 10672 10670 10669 10667 10665 10665 10664 10662 10660 10659 10657 10655 10654 10652 10650 10648 10646 10644 10642 10640 10638 10636 10634 10632 10629 10627 10624 10621 10619 10617 10614 10612 10611 10609 10605 10601 10599 10598 10595 10593 10591 10588 10585 10581 10577 10575 10573 10571 10566 10562 10560 10559 10556 10552 10549 10545 10542 10540 10537 10535 10533 10533 10532 10530 10528 10525 10522 10516 10509 10504 10499 10496 10492 10488 10484 10480
10681 10680 10679 10678 10677 10676 10675 10674 10673 10671 10670 10669 10668 10666 10665 10663 10661 10660 10659 10657 10656 10654 10652 10650 10648 10646 10644 10642 10640 10637 10635 10633 10631 10629 10626 10624 10622 10619 10616 10613 10610 10608 10606 10604 10603 10599 10595 10592 10589 10588 10586 10584 10581 10578 10574 10571 10568 10565 10561 10558 10554 10552 10549 10545 10542 10541 10538 10534 10531 10528 10524 10521 10520 10520 10519 10518 10516 10513 10507 10501 10495 10490 10486 10482 10478 10474 10469 10465
10679 10678 10677 10676 10675 10673 10672 10671 10669 10668 10667 10665 10664 10662 10661 10659 10657 10655 10654 10652 10651 10649 10647 10645 10643 10641 10639 10636 10634 10631 10629 10626 10624 10621 10619 10616 10614 10611 10609 10606 10602 10599 10597 10595 10593 10590 10586 10583 10580 10577 10575 10574 10571 10567 10563 10561 10559 10555 10550 10546 10542 10541 10537 10531 10528 10526 10524 10521 10519 10516 10511 10509 10507 10506 10506 10505 10503 10499 10493 10487 10482 10476 10471 10467 10462 10458 10454 10451
10677 10676 10675 10674 10672 10671 10670 10668 10666 10665 10663 10662 10660 10659 10657 10655 10653 10651 10649 10647 10645 10643 10642 10640 10638 10635 10633 10631 10628 10625 10622 10620 10617 10614 10611 10608 10605 10602 10600 10598 10594 10591 10588 10586 10584 10580 10577 10574 10571 10568 10565 10562 10559 10555 10552 10550 10547 10543 10540 10535 10532 10530 10525 10520 10515 10512 10509 10507 10504 10501 10497 10495 10494 10492 10491 10490 10488 10483 10478 10473 10467 10462 10456 10451 10447 10443 10441 10439
10675 10674 10673 10671 10670 10668 10667 10665 10663 10661 10660 10658 10657 10655 10653 10651 10649 10647 10645 10642 10640 10638 10636 10634 10632 10629 10627 10624 10621 10619 10616 10613 10610 10607 10604 10601 10597 10594 10591 10588 10586 10583 10580 10577 10574 10571 10568 10565 10562 10558 10555 10552 10548 10544 10540 10538 10535 10531 10528 10524 10521 10518 10514 10510 10504 10499 10497 10495 10490 10487 10484 10483 10481 10478 10476 10475 10471 10466 10461 10457 10452 10446 10440 10435 10433 10432 10429 10426
10673 10672 10670 10669 10667 10665 10664 10662 10660 10658 10657 10655 10653 10651 10649 10647 10645 10643 10640 10637 10635 10632 10631 10628 10626 10623 10620 10618 10615 10612 10609 10605 10603 10599 10596 10593 10590 10586 10583 10580 10577 10574 10571 10567 10565 10562 10558 10556 10552 10549 10545 10541 10538 10534 10530 10527 10524 10520 10516 10513 10509 10505 10503 10499 10492 10487 10485 10482 10477 10473 10472 10471 10468 10465 10462 10459 10455 10451 10447 10442 10435 10429 10424 10422 10421 10419 10416 10411
10671 10669 10668 10666 10664 10662 10660 10659 10657 10655 10653 10651 10649 10647 10645 10642 10640 10638 10635 10632 10629 10627 10624 10622 10619 10616 10613 10611 10608 10605 10602 10598 10595 10591 10588 10585 10582 10579 10575 10572 10569 10566 10562 10558 10555 10552 10548 10546 10543 10540 10536 10532 10528 10525 10520 10516 10513 10510 10506 10502 10498 10493 10490 10488 10482 10476 10473 10470 10464 10459 10459 10459 10456 10452 10448 10445 10441 10437 10432 10426 10419 10414 10412 10410 10408 10405 10401 10396
10668 10666 10664 10662 10661 10659 10657 10655 10653 10651 10649 10646 10644 10642 10640 10637 10635 10632 10629 10626 10623 10620 10618 10615 10612 10609 10606 10603 10600 10597 10594 10590 10587 10584 10580 10577 10573 10570 10567 10564 10561 10558 10554 10550 10546 10542 10538 10535 10533 10530 10527 10523 10519 10515 10511 10507 10503 10499 10495 10492 10488 10483 10480 10476 10471 10465 10462 10458 10452 10446 10445 10447 10445 10440 10436 10432 10427 10422 10416 10410 10406 10402 10400 10397 10394 10391 10386 10381
10665 10663 10661 10659 10657 10655 10654 10651 10649 10647 10644 10642 10639 10637 10634 10632 10629 10627 10624 10620 10616 10613 10611 10607 10605 10601 10598 10596 10592 10589 10587 10583 10580 10576 10573 10569 10565 10562 10559 10556 10552 10549 10545 10542 10538 10534 10530 10526 10523 10520 10516 10513 10510 10506 10502 10498 10493 10488 10484 10481 10477 10473 10469 10465 10460 10455 10450 10445 10440 10435 10431 10432 10434 10430 10424 10419 10414 10408 10402 10398 10393 10389 10386 10383 10380 10377 10372 10367
10662 10660 10658 10656 10654 10652 10650 10647 10644 10642 10640 10637 10634 10632 10629 10627 10624 10621 10618 10614 10610 10606 10604 10601 10597 10594 10591 10588 10585 10582 10579 10576 10573 10569 10565 10562 10558 10555 10552 10548 10545 10541 10537 10533 10529 10526 10523 10519 10515 10511 10507 10503 10500 10496 10493 10489 10484 10479 10475 10471 10466 10463 10459 10454 10450 10445 10439 10433 10428 10424 10419 10418 10420 10416 10411 10407 10402 10397 10392 10386 10380 10375 10371 10368 10365 10362 10358 10353
10659 10657 10655 10653 10651 10648 10645 10643 10640 10638 10635 10632 10629 10626 10623 10621 10618 10615 10612 10608 10604 10600 10597 10594 10591 10588 10585 10582 10579 10575 10572 10569 10566 10563 10559 10555 10552 10549 10545 10542 10538 10534 10530 10526 10521 10518 10515 10511 10506 10502 10498 10494 10490 10487 10483 10479 10475 10469 10465 10461 10456 10452 10448 10443 10438 10433 10428 10423 10418 10413 10408 10405 10405 10401 10396 10394 10392 10388 10382 10375 10367 10362 10357 10353 10349 10345 10341 10337
10657 10654 10652 10649 10647 10644 10641 10639 10636 10633 10630 10627 10624 10620 10617 10615 10612 10609 10606 10602 10599 10595 10592 10589 10586 10583 10580 10576 10573 10570 10567 10564 10560 10557 10554 10550 10546 10542 10538 10534 10530 10526 10522 10518 10514 10509 10506 10502 10498 10493 10489 10485 10481 10477 10473 10469 10465 10460 10455 10451 10446 10442 10438 10432 10427 10421 10416 10412 10407 10401 10395 10392 10391 10388 10382 10379 10378 10375 10370 10364 10357 10350 10345 10340 10335 10331 10326 10321
10653 10651 10648 10645 10643 10641 10638 10635 10632 10629 10626 10622 10619 10615 10612 10609 10606 10604 10601 10597 10594 10591 10587 10584 10581 10578 10575 10572 10568 10565 10562 10558 10555 10552 10548 10545 10541 10537 10533 10528 10524 10519 10515 10511 10506 10502 10497 10494 10490 10486 10481 10476 10472 10468 10464 10460 10455 10450 10445 10440 10436 10432 10427 10422 10417 10412 10406 10401 10396 10389 10383 10378 10377 10375 10370 10365 10362 10359 10356 10352 10346 10340 10334 10328 10323 10317 10312 10306
10650 10647 10645 10642 10639 10637 10634 10631 10628 10624 10621 10618 10614 10610 10607 10604 10601 10599 10596 10592 10589 10586 10583 10579 10576 10573 10570 10567 10564 10560 10557 10553 10550 10546 10542 10539 10537 10534 10530 10525 10519 10514 10509 10504 10500 10495 10490 10485 10481 10477 10473 10469 10464 10460 10456 10451 10447 10442 10437 10432 10427 10422 10417 10412 10407 10402 10396 10391 10386 10379 10373 10367 10363 10360 10356 10351 10347 10344 10341 10338 10333 10328 10323 10316 10310 10304 10299 10293
10646 10644 10641 10638 10635 10632 10629 10626 10623 10620 10617 10614 10610 10606 10603 10600 10597 10594 10591 10588 10585 10582 10578 10575 10572 10569 10566 10563 10560 10557 10553 10549 10546 10541 10536 10532 10528 10525 10522 10518 10513 10508 10502 10497 10492 10487 10482 10477 10473 10468 10464 10459 10456 10451 10447 10443 10438 10433 10429 10423 10418 10413 10408 10403 10397 10391 10385 10379 10374 10369 10364 10358 10351 10345 10341 10337 10333 10329 10326 10323 10318 10314 10309 10303 10298 10292 10286 10280
10643 10640 10638 10635 10632 10629 10625 10622 10619 10616 10613 10609 10606 10603 10599 10596 10593 10590 10587 10584 10581 10578 10575 10572 10568 10565 10562 10559 10556 10553 10549 10546 10542 10538 10533 10528 10523 10518 10514 10510 10506 10501 10496 10491 10485 10480 10475 10471 10466 10461 10456 10451 10447 10442 10438 10434 10429 10425 10420 10415 10410 10405 10400 10396 10391 10385 10378 10370 10364 10359 10355 10350 10342 10335 10330 10325 10320 10316 10312 10308 10304 10300 10295 10290 10284 10278 10273 10266
10640 10637 10634 10631 10628 10625 10622 10618 10615 10612 10609 10606 10603 10600 10596 10593 10589 10586 10583 10580 10577 10574 10571 10568 10565 10562 10559 10555 10553 10549 10545 10542 10538 10534 10530 10526 10521 10516 10511 10506 10501 10496 10491 10486 10480 10475 10469 10464 10459 10454 10449 10445 10440 10435 10431 10426 10422 10418 10414 10409 10404 10399 10394 10389 10385 10381 10375 10367 10358 10351 10347 10342 10334 10327 10321 10315 10310 10305 10300 10295 10291 10287 10281 10276 10271 10265 10259 10252
10636 10634 10631 10628 10625 10622 10618 10615 10612 10609 10606 10603 10599 10596 10593 10590 10586 10583 10580 10577 10574 10571 10568 10565 10562 10559 10555 10552 10549 10545 10542 10538 10534 10530 10526 10522 10517 10512 10507 10502 10496 10490 10485 10479 10474 10468 10463 10458 10453 10448 10443 10438 10433 10429 10424 10419 10415 10411 10407 10403 10398 10393 10387 10381 10376 10372 10367 10361 10353 10344 10340 10335 10327 10318 10312 10307 10301 10295 10289 10283 10278 10273 10268 10262 10257 10251 10245 10239
10633 10630 10627 10624 10621 10618 10615 10612 10609 10606 10603 10599 10596 10593 10590 10587 10584 10581 10578 10574 10571 10568 10565 10562 10559 10556 10553 10549 10545 10542 10538 10534 10530 10526 10521 10517 10512 10506 10501 10496 10490 10484 10479 10473 10468 10462 10457 10452 10447 10441 10436 10431 10427 10422 10417 10412 10407 10402 10398 10394 10389 10384 10379 10373 10367 10361 10357 10352 10345 10336 10332 10328 10320 10310 10303 10298 10293 10286 10279 10273 10267 10261 10256 10250 10244 10237 10231 10225
10630 10627 10624 10621 10618 10615 10612 10609 10606 10603 10600 10597 10594 10590 10587 10584 10581 10578 10575 10572 10569 10566 10563 10560 10557 10554 10550 10547 10543 10539 10535 10531 10527 10522 10517 10512 10506 10501 10496 10490 10485 10479 10473 10468 10462 10457 10452 10447 10441 10436 10431 10426 10420 10415 10411 10406 10401 10396 10391 10386 10381 10376 10372 10367 10361 10354 10348 10344 10337 10327 10321 10319 10312 10304 10298 10292 10285 10279 10272 10265 10258 10252 10246 10239 10233 10226 10219 10212
10627 10624 10621 10618 10615 10613 10610 10607 10604 10601 10597 10594 10591 10588 10585 10581 10578 10576 10573 10570 10567 10564 10561 10558 10555 10552 10548 10544 10540 10536 10532 10528 10523 10518 10513 10507 10502 10497 10492 10486 10480 10475 10469 10464 10458 10453 10448 10442 10437 10431 10426 10421 10415 10409 10405 10400 10395 10390 10386 10381 10375 10370 10364 10358 10352 10347 10341 10338 10334 10323 10313 10310 10305 10297 10291 10286 10279 10272 10266 10259 10252 10245 10239 10232 10226 10219 10212 10204
10625 10622 10619 10616 10613 10610 10607 10604 10601 10598 10595 10592 10589 10585 10582 10579 10576 10574 10571 10568 10565 10562 10559 10556 10553 10549 10546 10542 10538 10534 10529 10524 10519 10514 10509 10504 10499 10494 10488 10482 10477 10471 10466 10461 10455 10450 10444 10439 10433 10427 10421 10416 10411 10405 10399 10394 10389 10383 10378 10373 10369 10363 10357 10350 10343 10337 10332 10329 10328 10320 10308 10301 10297 10291 10285 10279 10272 10266 10259 10253 10246 10239 10232 10224 10218 10212 10204 10197
10622 10619 10616 10614 10611 10608 10605 10602 10598 10595 10592 10589 10587 10583 10580 10578 10575 10572 10569 10566 10563 10560 10557 10554 10551 10547 10543 10539 10535 10530 10526 10521 10516 10512 10507 10501 10496 10491 10485 10480 10474 10470 10465 10459 10454 10448 10441 10436 10430 10425 10419 10413 10407 10401 10395 10388 10384 10379 10373 10367 10362 10357 10351 10345 10337 10330 10324 10319 10318 10313 10303 10295 10290 10284 10278 10272 10266 10259 10252 10245 10239 10232 10224 10217 10210 10203 10195 10187
10620 10617 10614 10611 10609 10606 10602 10599 10596 10593 10591 10588 10585 10582 10579 10577 10574 10571 10568 10565 10562 10559 10555 10552 10548 10545 10540 10536 10532 10528 10523 10519 10514 10509 10504 10499 10493 10488 10483 10478 10473 10467 10462 10456 10450 10444 10438 10432 10427 10421 10416 10409 10403 10398 10392 10384 10379 10375 10371 10365 10358 10353 10346 10340 10332 10324 10316 10311 10309 10304 10296 10288 10282 10276 10270 10263 10257 10251 10243 10236 10229 10222 10214 10206 10199 10192 10184 10176
10618 10615 10612 10609 10606 10603 10600 10598 10595 10592 10589 10586 10583 10581 10578 10575 10572 10569 10566 10563 10560 10557 10553 10550 10546 10542 10538 10534 10530 10526 10521 10517 10512 10507 10502 10497 10492 10487 10481 10476 10470 10465 10459 10453 10447 10442 10436 10430 10424 10418 10413 10408 10402 10396 10390 10384 10376 10370 10366 10360 10354 10348 10342 10335 10328 10319 10310 10303 10299 10294 10285 10279 10274 10268 10262 10255 10248 10241 10234 10227 10220 10213 10204 10196 10189 10183 10177 10170
10616 10613 10610 10607 10605 10602 10599 10597 10594 10591 10588 10585 10582 10580 10577 10574 10571 10567 10564 10561 10558 10555 10551 10548 10544 10540 10536 10532 10528 10524 10519 10515 10510 10505 10500 10495 10490 10485 10480 10474 10468 10462 10457 10452 10446 10441 10435 10429 10423 10417 10411 10405 10400 10394 10387 10382 10374 10366 10360 10355 10349 10343 10336 10330 10322 10315 10307 10298 10293 10289 10279 10272 10268 10263 10256 10250 10243 10235 10229 10221 10214 10207 10198 10190 10182 10176 10170 10162
10614 10611 10609 10606 10604 10601 10598 10595 10593 10590 10587 10584 10581 10578 10575 10572 10569 10565 10562 10559 10556 10553 10549 10546 10542 10538 10534 10530 10526 10522 10518 10514 10509 10504 10499 10494 10489 10483 10478 10472 10467 10461 10456 10450 10445 10440 10434 10429 10423 10417 10411 10405 10398 10392 10385 10379 10372 10364 10357 10350 10344 10338 10332 10326 10318 10310 10304 10294 10288 10285 10277 10266 10260 10256 10250 10244 10237 10229 10222 10215 10208 10201 10193 10185 10176 10168 10161 10153
10612 10610 10607 10605 10603 10600 10597 10595 10592 10589 10586 10583 10580 10577 10574 10570 10567 10564 10561 10558 10554 10551 10548 10544 10541 10537 10533 10529 10525 10521 10517 10512 10508 10502 10497 10492 10487 10482 10476 10471 10466 10460 10455 10449 10443 10437 10432 10426 10421 10415 10409 10403 10397 10390 10383 10376 10369 10361 10353 10346 10340 10334 10328 10322 10314 10305 10298 10289 10280 10277 10272 10261 10251 10244 10239 10232 10226 10219 10212 10205 10199 10191 10184 10176 10167 10159 10152 10144
10611 10609 10607 10604 10602 10599 10596 10594 10591 10588 10585 10582 10579 10575 10572 10569 10566 10562 10559 10556 10553 10550 10546 10543 10539 10536 10532 10528 10524 10520 10516 10511 10506 10501 10496 10491 10486 10481 10475 10470 10464 10459 10453 10447 10441 10435 10429 10423 10417 10411 10404 10398 10391 10385 10378 10371 10363 10355 10348 10340 10334 10328 10322 10317 10308 10299 10293 10286 10275 10267 10263 10257 10246 10237 10230 10223 10216 10209 10202 10195 10188 10180 10172 10164 10156 10148 10140 10133
10610 10608 10606 10603 10601 10598 10595 10593 10590 10586 10583 10580 10577 10574 10570 10567 10564 10561 10558 10555 10552 10548 10545 10541 10538 10535 10531 10527 10523 10519 10514 10509 10504 10499 10495 10490 10485 10479 10474 10469 10463 10457 10452 10446 10440 10433 10427 10420 10413 10407 10400 10394 10387 10380 10373 10366 10358 10350 10343 10335 10328 10321 10316 10310 10303 10295 10288 10283 10274 10264 10256 10251 10244 10234 10226 10218 10210 10203 10195 10187 10179 10172 10164 10155 10147 10138 10130 10122
10609 10607 10605 10602 10600 10597 10594 10591 10588 10585 10582 10579 10576 10572 10569 10566 10563 10560 10557 10554 10551 10547 10544 10541 10537 10533 10529 10525 10521 10517 10512 10508 10503 10498 10493 10488 10483 10478 10473 10467 10462 10456 10450 10444 10438 10431 10425 10418 10411 10404 10397 10390 10383 10376 10369 10361 10354 10347 10340 10332 10324 10316 10309 10304 10298 10292 10284 10277 10270 10262 10253 10247 10241 10233 10224 10216 10207 10199 10189 10180 10173 10166 10158 10150 10141 10132 10123 10115
10608 10606 10604 10602 10599 10596 10593 10590 10587 10584 10581 10577 10574 10571 10568 10565 10562 10559 10556 10553 10550 10546 10543 10540 10536 10532 10528 10524 10520 10516 10511 10506 10502 10497 10492 10487 10482 10477 10471 10466 10460 10454 10448 10442 10436 10430 10424 10417 10410 10404 10397 10389 10382 10374 10367 10359 10352 10345 10337 10330 10321 10312 10306 10301 10295 10288 10279 10271 10264 10259 10252 10244 10237 10230 10221 10213 10204 10195 10185 10176 10168 10161 10154 10146 10136 10127 10119 10110
10607 10605 10603 10600 10598 10595 10592 10589 10586 10583 10579 10576 10573 10570 10567 10564 10561 10558 10555 10552 10549 10546 10542 10538 10535 10531 10527 10523 10519 10514 10510 10505 10500 10496 10491 10486 10481 10475 10470 10465 10459 10453 10448 10442 10435 10429 10423 10416 10410 10403 10396 10390 10382 10375 10368 10360 10352 10344 10336 10327 10319 10310 10302 10297 10291 10283 10275 10269 10262 10256 10250 10243 10235 10227 10217 10209 10200 10192 10182 10173 10164 10156 10148 10140 10131 10122 10113 10105
10606 10604 10602 10599 10596 10593 10590 10587 10584 10581 10578 10575 10572 10569 10566 10564 10561 10558 10554 10551 10548 10545 10541 10537 10534 10530 10526 10522 10518 10513 10509 10504 10499 10494 10489 10484 10479 10474 10469 10463 10458 10452 10446 10441 10435 10428 10421 10415 10408 10401 10394 10388 10382 10375 10368 10361 10351 10343 10335 10326 10318 10309 10299 10291 10285 10278 10272 10267 10260 10253 10246 10239 10231 10223 10213 10203 10195 10187 10179 10169 10159 10150 10141 10132 10125 10116 10107 10099
10605 10603 10600 10597 10595 10592 10589 10586 10583 10580 10577 10574 10571 10569 10566 10563 10560 10557 10554 10551 10547 10544 10540 10537 10533 10529 10525 10521 10516 10512 10507 10503 10498 10493 10488 10483 10478 10473 10467 10462 10456 10450 10445 10439 10433 10427 10420 10414 10407 10400 10393 10386 10379 10372 10365 10359 10351 10343 10335 10326 10317 10307 10296 10286 10281 10275 10268 10261 10255 10247 10240 10232 10224 10216 10207 10197 10187 10180 10173 10163 10154 10145 10136 10126 10118 10110 10102 10093